Location: Cactus School
(34.5700°N, 118.0931°W)
Time: 00:22:37
(UTC-07:00)

Vanguard 1 Rocket - Pass Details

Date: 23 April 2024
Orbit: 650 x 4220 km, 34.3° (Epoch: 22 May)

Event Time Altitude Azimuth Distance (km) Brightness Sun altitude
Rises 22:20:18 0° 280° (W) 3,521 11.2 -30.5°
Reaches altitude 10° 22:22:21 10° 277° (W) 2,797 10.4 -30.8°
Maximum altitude 22:29:01 65° 196° (SSW) 1,603 8.3 -31.7°
Enters shadow 22:29:39 63° 176° (S) 1,672 8.3 -31.8°
Drops below altitude 10° 22:42:03 10° 119° (ESE) 5,229 - -33.5°
Sets 22:47:25 0° 117° (ESE) 6,823 - -34.1°
